Flag for Norway

Past Weather in Fosnavåg, Norway — Yesterday and Last 2 Weeks

Now
51 °F

Cool.


Feels Like: 49 °F
Forecast: 53 / 47 °F
Wind: 5 mph from West

Location: Svinoy Fyr

Current Time: Jul 7, 2020 at 2:44:07 am

Latest Report: Jul 7, 2020 at 2:00 am


Visibility: N/A

Pressure: 29.65 "Hg

Humidity: 68%

Dew Point: 40 °F

Location of FosnavågLocation

Past Weather in Fosnavåg — Graph

°F

Fosnavåg Temperature Yesterday

Maximum temperature yesterday: 56 °F (at 1:00 am)
Minimum temperature yesterday: 50 °F (at 6:00 pm)
Average temperature yesterday: 53 °F

High & Low Weather Summary for the Past Weeks

 TemperatureHumidityPressure
High71 °F (Jun 28, 2:00 am)98% (Jun 23, 8:00 pm)30.31 "Hg (Jun 23, 8:00 pm)
Low45 °F (Jul 3, 5:00 am)57% (Jun 28, 2:00 am)29.00 "Hg (Jul 5, 6:00 pm)
Average56 °F79%29.74 "Hg
* Reported Jun 22 2:00 am — Jul 7 1:00 am, Fosnavåg. Weather by CustomWeather, © 2020

Note: Actual official high and low records may vary slightly from our data, if they occured in-between our weather recording intervals... More about our weather records

Fosnavåg Weather History for the Previous 24 Hours

Scroll right to see more
 ConditionsComfort  
Time TempWeatherWind HumidityBarometerVisibility
1:00 am
Tue, Jul 7
50 °FCool.6 mph67%29.65 "HgN/A
12:00 am51 °FCool.7 mph69%29.64 "HgN/A
11:00 pm
Mon, Jul 6
51 °FCool.8 mph65%29.64 "HgN/A
10:00 pm51 °FCool.8 mph70%29.63 "HgN/A
9:00 pm51 °FCool.10 mph70%29.62 "HgN/A
8:00 pm51 °FCool.10 mph77%29.60 "HgN/A
7:00 pm51 °FCool.14 mph81%29.59 "HgN/A
6:00 pm50 °FCool.12 mph86%29.58 "HgN/A
5:00 pm53 °FCool.10 mph70%29.56 "HgN/A
4:00 pm52 °FCool.13 mph80%29.54 "HgN/A
3:00 pm54 °FCool.10 mph70%29.50 "HgN/A
2:00 pm53 °FCool.10 mph70%29.47 "HgN/A
1:00 pm53 °FCool.13 mph74%29.44 "HgN/A
12:00 pm53 °FCool.15 mph76%29.41 "HgN/A
11:00 am52 °FCool.15 mph81%29.38 "HgN/A
10:00 am53 °FCool.17 mph69%29.32 "HgN/A
9:00 am53 °FCool.17 mph74%29.29 "HgN/A
8:00 am53 °FCool.18 mph77%29.23 "HgN/A
7:00 am53 °FCool.18 mph85%29.21 "HgN/A
6:00 am53 °FCool.21 mph89%29.18 "HgN/A
5:00 am53 °FCool.21 mph92%29.15 "HgN/A
2:00 am55 °FCool.18 mph85%29.03 "HgN/A
Weather by CustomWeather, © 2020

See weather overview